TimeCDT,TemperatureF,Dew PointF,Humidity,Sea Level PressureIn,VisibilityMPH,Wind Direction,Wind SpeedMPH,Gust SpeedMPH,PrecipitationIn,Events,Conditions,WindDirDegrees,DateUTC
12:42 AM,57.2,55.4,94,30.03,7.0,East,11.5,-,N/A,,Scattered Clouds,100,2013-03-30 05:42:00
12:53 AM,57.9,55.9,93,30.01,7.0,ESE,11.5,-,N/A,,Mostly Cloudy,110,2013-03-30 05:53:00
1:15 AM,57.2,55.4,94,30.03,7.0,East,8.1,-,N/A,Thunderstorm,Mostly Cloudy,100,2013-03-30 06:15:00
1:26 AM,57.2,55.4,94,30.02,7.0,ESE,11.5,-,N/A,,Mostly Cloudy,110,2013-03-30 06:26:00
1:37 AM,57.2,55.4,94,30.02,7.0,SE,8.1,17.3,N/A,,Mostly Cloudy,130,2013-03-30 06:37:00
1:53 AM,57.0,55.9,96,30.00,7.0,SE,6.9,-,N/A,,Mostly Cloudy,130,2013-03-30 06:53:00
2:53 AM,57.0,55.9,96,29.95,6.0,SE,5.8,-,N/A,,Clear,140,2013-03-30 07:53:00
3:53 AM,57.0,55.9,96,29.94,4.0,ESE,11.5,-,N/A,,Clear,120,2013-03-30 08:53:00
4:23 AM,57.2,55.4,94,29.93,6.0,East,10.4,-,N/A,,Partly Cloudy,100,2013-03-30 09:23:00
4:53 AM,57.9,55.9,93,29.95,8.0,South,5.8,-,N/A,,Mostly Cloudy,190,2013-03-30 09:53:00
5:08 AM,57.2,55.4,94,29.96,7.0,ESE,5.8,-,N/A,Thunderstorm,Overcast,110,2013-03-30 10:08:00
5:27 AM,57.2,55.4,94,29.96,6.0,ESE,5.8,-,N/A,Thunderstorm,Mostly Cloudy,120,2013-03-30 10:27:00
5:37 AM,57.2,55.4,94,29.96,6.0,SE,4.6,-,N/A,,Mostly Cloudy,130,2013-03-30 10:37:00
5:53 AM,57.0,55.0,93,29.94,5.0,SE,3.5,-,N/A,,Mostly Cloudy,130,2013-03-30 10:53:00
6:53 AM,57.0,55.9,96,29.95,6.0,Calm,Calm,-,N/A,,Mostly Cloudy,0,2013-03-30 11:53:00
7:49 AM,55.4,55.4,100,29.99,1.8,Calm,Calm,-,N/A,,Scattered Clouds,0,2013-03-30 12:49:00
7:53 AM,55.9,55.0,97,29.98,1.5,Calm,Calm,-,N/A,,Scattered Clouds,0,2013-03-30 12:53:00
8:09 AM,55.4,55.4,100,30.01,2.5,Calm,Calm,-,N/A,,Scattered Clouds,0,2013-03-30 13:09:00
8:26 AM,57.2,55.4,94,30.01,2.5,NE,3.5,-,N/A,,Mostly Cloudy,40,2013-03-30 13:26:00
8:33 AM,57.2,55.4,94,30.01,3.0,NE,5.8,-,N/A,,Overcast,40,2013-03-30 13:33:00
8:41 AM,57.2,57.2,100,30.01,3.0,ENE,4.6,-,N/A,,Overcast,70,2013-03-30 13:41:00
8:53 AM,57.9,57.0,97,30.00,6.0,NE,6.9,-,N/A,,Overcast,50,2013-03-30 13:53:00
9:53 AM,60.1,57.9,93,29.99,8.0,ESE,8.1,-,N/A,,Overcast,120,2013-03-30 14:53:00
10:37 AM,62.6,57.2,82,30.00,10.0,SSE,12.7,-,N/A,,Overcast,150,2013-03-30 15:37:00
10:46 AM,62.6,57.2,82,29.99,10.0,SE,10.4,-,N/A,,Overcast,140,2013-03-30 15:46:00
10:53 AM,63.0,57.9,84,29.97,10.0,SSE,8.1,-,N/A,,Overcast,150,2013-03-30 15:53:00
11:53 AM,66.0,57.9,75,29.96,10.0,South,10.4,-,N/A,,Overcast,170,2013-03-30 16:53:00
12:53 PM,70.0,60.1,71,29.93,10.0,South,9.2,-,N/A,,Scattered Clouds,190,2013-03-30 17:53:00
1:07 PM,71.6,60.8,69,29.94,10.0,South,10.4,-,N/A,,Mostly Cloudy,190,2013-03-30 18:07:00
1:20 PM,71.6,60.8,69,29.94,10.0,SSW,9.2,18.4,N/A,,Scattered Clouds,210,2013-03-30 18:20:00
1:53 PM,73.9,60.1,62,29.90,10.0,SSW,8.1,-,N/A,,Scattered Clouds,210,2013-03-30 18:53:00
2:53 PM,75.9,57.9,54,29.87,10.0,SW,8.1,-,N/A,,Clear,220,2013-03-30 19:53:00
3:53 PM,79.0,57.0,47,29.84,10.0,West,10.4,-,N/A,,Clear,260,2013-03-30 20:53:00
4:53 PM,79.0,55.9,45,29.83,10.0,SW,11.5,-,N/A,,Clear,230,2013-03-30 21:53:00
5:53 PM,80.1,51.1,36,29.82,10.0,SW,10.4,-,N/A,,Clear,230,2013-03-30 22:53:00
6:53 PM,79.0,48.9,35,29.82,10.0,West,6.9,-,N/A,,Clear,270,2013-03-30 23:53:00
7:53 PM,73.9,50.0,43,29.83,10.0,West,3.5,-,N/A,,Clear,280,2013-03-31 00:53:00
8:53 PM,64.9,52.0,63,29.85,10.0,North,4.6,-,N/A,,Clear,360,2013-03-31 01:53:00
9:53 PM,64.0,51.1,63,29.87,10.0,North,3.5,-,N/A,,Clear,360,2013-03-31 02:53:00
10:53 PM,57.9,52.0,81,29.88,10.0,NNW,5.8,-,N/A,,Clear,340,2013-03-31 03:53:00
11:53 PM,55.0,51.1,86,29.89,10.0,Calm,Calm,-,N/A,,Clear,0,2013-03-31 04:53:00